Regional Weather Roundup
Issued by NWS Sioux Falls, SD

Home | Current Version | Previous Version | Graphics & Text | Print | Product List | Glossary On
Versions: 1 2 3 4 5 6 7 8 9 10 11 12 13 14 15 16 17 18 19 20 21 22 23 24 25 26 27 28 29 30 31 32 33 34 35 36 37 38 39 40 41 42 43 44 45 46 47 48 49 50
000
ASUS43 KFSD 240302
RWRFSD

WEATHER ROUNDUP FOR SE SOUTH DAKOTA/SW MINNESOTA/NW IOWA
NATIONAL WEATHER SERVICE SIOUX FALLS SD
900 PM CST THU NOV 23 2017

NOTE: "FAIR" INDICATES FEW OR NO CLOUDS BELOW 12,000 FEET WITH NO
SIGNIFICANT WEATHER AND OR OBSTRUCTIONS TO VISIBILITY.


SDZ038>040-050-052>070-240400-
SOUTHEAST SOUTH DAKOTA

CITY           SKY/WX    TMP DP  RH WIND       PRES   REMARKS
BROOKINGS      CLEAR     47  37  68 S12       29.62F
CHAMBERLAIN    CLEAR     56  41  58 SW7       29.63F
HURON          CLEAR     49  40  71 S9        29.57F
MADISON        FAIR      46  39  76 S9        29.64F
MITCHELL       PTCLDY    56  41  57 SW10      29.62F
SIOUX FALLS    CLOUDY    56  42  59 SW10      29.65F
WINNER         FAIR      57  39  51 SW9       29.65F
YANKTON        CLOUDY    61  42  49 S8        29.67F
$$

MNZ071-072-080-081-089-090-097-098-240400-
SOUTHWEST MINNESOTA

CITY           SKY/WX    TMP DP  RH WIND       PRES   REMARKS
FAIRMONT       PTCLDY    40  31  70 S10       29.70F
JACKSON        PTCLDY    45  34  65 S13       29.69F
MARSHALL       CLOUDY    53  38  56 SW25      29.57F
MONTEVIDEO     PTCLDY    46  36  66 SW9       29.56F
PIPESTONE      PTCLDY    48  36  61 SW10      29.64F
REDWOOD FALLS  CLEAR     45  33  63 S13       29.61F
WINDOM         PTCLDY    48  30  49 S15G23    29.65F
WORTHINGTON    MOCLDY    50  37  61 S20       29.67F
$$

IAZ001>003-012>014-020>022-031-032-NEZ013-014-SDZ071-240400-
NORTHWEST IOWA

CITY           SKY/WX    TMP DP  RH WIND       PRES   REMARKS
CHEROKEE       CLOUDY    50  37  59 S9        29.72F
DENISON        CLOUDY    52  37  58 S9        29.78F
ESTHERVILLE    PTCLDY    39  32  76 S10       29.70F
LE MARS        CLOUDY    52  39  62 S13       29.70F
ORANGE CITY    CLOUDY    54  41  62 S13G18    29.70F
SHELDON        PTCLDY    52  37  58 S15G21    29.67F
SIOUX CITY     PTCLDY    48  38  68 E9        29.72F
SPENCER        PTCLDY    45  34  65 S9        29.71F
STORM LAKE     MOCLDY    48  36  61 S10       29.74F
$$

ABBREVIATIONS USED IN REMARKS
   TC - TEMPERATURE IN CELSIUS
  WCI - WIND CHILL INDEX
   HX - HEAT INDEX
  VSB - VISIBILITY





USA.gov is the U.S. government's official web portal to all federal, state and local government web resources and services.